Location: Nickerson Gardens
(33.9320°N, 118.2484°W)
Time: 04:45:01
(UTC+00:00)

N. Korean satellite - Pass Details

Date: 27 January 2021
Orbit: 451 x 502 km, 97.2° (Epoch: 05 March)

Event Time Altitude Azimuth Distance (km) Brightness Sun altitude
Rises 13:17:29 0° 10° (N) 2,484 10.2 -19.9°
Reaches altitude 10° 13:19:32 10° 9° (N) 1,600 9.2 -19.5°
Maximum altitude 13:22:58 82° 284° (WNW) 462 6.2 -18.8°
Drops below altitude 10° 13:26:20 10° 195° (SSW) 1,576 9.1 -18.1°
Sets 13:28:21 0° 194° (SSW) 2,443 10.1 -17.7°
